Location: Be?chatów
(51.3665°N, 19.3745°E)
Time: 22:51:16
(UTC+00:00)

SL-16 R/B - Pass Details

Date: 19 May 2025
Orbit: 841 x 844 km, 71.0° (Epoch: 16 June)

Event Time Altitude Azimuth Distance (km) Brightness Sun altitude
Rises 22:41:36 0° 325° (NW) 3,415 6.2 -18.7°
Reaches altitude 10° 22:44:14 10° 317° (NW) 2,475 5.3 -18.6°
Maximum altitude 22:49:20 36° 253° (WSW) 1,324 3.0 -18.6°
Enters shadow 22:51:16 28° 215° (SW) 1,542 3.1 -18.6°
